Location: Goettingen
(51.5300°N, 9.9433°E)
Time: 13:57:11
(UTC+01:00)

ISS - Pass Details

Date: 26 November 2023
Orbit: 416 x 417 km, 51.6° (Epoch: 02 December)

Event Time Altitude Azimuth Distance (km) Brightness Sun altitude
Rises 17:26:12 0° 260° (W) 2,357 2.0 -10.1°
Reaches altitude 10° 17:28:18 10° 260° (W) 1,495 0.6 -10.5°
Maximum altitude 17:31:39 87° 176° (S) 424 -3.8 -10.9°
Enters shadow 17:34:05 18° 83° (E) 1,118 -2.2 -11.3°
